User: anonymous   Login
Location: Alfortville
(48.8058°N, 2.4204°E)
Time: 00:28:07
(UTC+00:00)
Language:

YAOGAN-30 V - Orbit

View from above orbital plane
View from above orbital plane
View from above satellite
View from above satellite

Ground track
Ground track

The orbit data is extracted from the following two-line orbital elements,

1 46808U 20076B   22222.57502562  .00000735  00000-0  76389-4 0  9995
2 46808  35.0004 298.9077 0002730  10.8256 349.2525 14.90632914 97449
Epoch (UTC): 10 August 2022 13:48:02
Eccentricity: 0.0002730
inclination: 35.0004°
perigee height: 594 km
apogee height: 598 km
right ascension of ascending node: 298.9077°
argument of perigee: 10.8256°
revolutions per day: 14.90632914
mean anomaly at epoch: 349.2525°
orbit number at epoch: 9744

The dashed part of the orbit path shows where the satellite is in the earth's shadow,  

DLR